Wetbulb
64.93 64.99 67.12 68.54 68.20 68.64 70.22 71.55 75.05 75.00 75.10 75.58 75.64 75.56 74.72 73.86 73.03 73.22 72.26 72.53 72.76 71.55
63.49 64.65 66.42 71.27 72.47 69.26 72.04 71.15 73.04 73.92 74.67 75.02 75.15 74.75 74.71 72.68 72.54 72.94 72.80 72.34 72.33 71.29
62.98 64.80 66.48 68.30 70.37 71.97 72.98 72.63 72.35 73.06 73.90 74.39 74.45 74.04 73.80 73.09 73.82 73.50 73.07 72.77 72.29 71.42
62.15 63.14 64.84 66.41 68.80 70.84 73.43 72.66 71.47 72.28 73.21 73.54 73.34 73.70 73.77 74.37 74.23 73.62 72.98 72.42 71.68 71.18
62.33 63.19 64.15 65.87 68.49 70.08 70.84 72.44 72.57 72.95 72.76 72.39 72.41 73.81 73.95 73.84 73.34 72.25 71.28 71.13 70.72 70.03
63.83 64.32 64.41 65.82 68.05 69.87 69.97 71.66 72.54 72.68 72.32 71.80 72.26 73.40 74.12 73.64 72.24 71.63 71.29 70.71 70.08 69.91
64.26 65.77 65.47 66.24 67.76 69.46 69.59 70.74 72.11 72.42 72.14 72.04 72.74 73.38 73.60 73.03 72.10 71.37 70.72 70.88 70.54 69.86
63.89 65.64 66.77 66.44 67.73 69.30 69.50 70.17 71.57 71.84 71.95 72.63 72.92 72.65 72.87 72.09 71.78 70.80 70.49 70.32 69.51 70.06
62.88 64.52 65.96 67.00 68.24 68.95 69.13 70.03 70.94 71.27 71.62 72.40 71.77 54.46 57.10 67.26 70.74 69.94 69.26 67.72 68.71 68.63
62.53 63.80 65.19 67.19 68.03 68.33 69.61 71.56 71.28 71.49 71.93 71.70 71.71 52.84 54.33 56.92 69.16 68.69 68.05 68.03 67.95 67.39
61.80 63.29 65.32 67.38 67.87 69.36 70.36 72.24 72.40 71.91 71.86 70.73 67.53 50.74 50.99 54.09 68.85 68.45 68.15 68.63 68.29 67.57
61.56 63.35 64.86 66.79 67.86 67.70 68.45 69.38 69.41 70.21 70.48 70.86 63.40 47.66 49.49 59.24 67.74 67.37 67.62 67.53 67.12 65.94
63.07 62.10 64.70 65.73 65.76 67.58 68.35 68.86 68.85 69.23 69.70 61.68 63.49 46.05 48.77 57.85 66.34 66.59 65.48 65.45 65.09 51.51
62.23 62.77 64.77 65.19 66.62 67.53 67.39 67.88 67.37 66.99 65.91 63.58 59.90 55.56 47.32 49.65 66.53 65.30 64.58 64.27 63.93 64.07
MSLP
1003.90 1003.42 1002.80 1002.31 1001.92 1001.56 1001.29 1001.23 1002.15 1002.95 1003.08 1003.42 1004.02 1004.47 1005.18 1005.49 1005.90 1006.03 1006.44 1006.71 1006.73 1006.83
1003.25 1002.99 1002.36 1001.70 1001.47 1001.49 1001.41 1001.24 1001.64 1001.93 1002.44 1002.41 1003.28 1003.57 1004.55 1004.78 1005.13 1005.41 1005.90 1006.12 1006.68 1006.86
1002.16 1002.04 1001.91 1001.77 1001.22 1000.84 1000.76 1000.94 1000.85 1000.86 1001.61 1002.09 1002.69 1003.03 1003.87 1004.03 1004.58 1004.70 1005.00 1005.28 1006.09 1006.67
1001.31 1001.04 1000.83 1000.52 1000.28 1000.42 1000.41 1000.32 1000.47 1000.43 1000.85 1001.32 1001.79 1002.43 1003.09 1003.23 1003.48 1003.94 1004.40 1005.03 1005.66 1006.18
1000.86 1000.42 1000.13 999.80 999.59 999.55 999.26 999.64 999.95 999.80 999.98 1000.37 1001.03 1001.79 1002.26 1002.48 1002.61 1003.35 1003.95 1004.65 1005.21 1005.64
999.94 999.69 999.55 999.23 998.98 998.97 998.78 998.80 998.90 998.87 998.93 999.32 1000.08 1000.95 1001.63 1001.84 1002.32 1002.96 1003.65 1004.28 1004.86 1005.10
999.27 998.88 998.76 998.48 998.18 998.07 998.08 997.77 997.92 998.16 998.44 998.78 999.52 1000.33 1001.05 1001.44 1002.02 1002.79 1003.51 1003.93 1004.56 1004.96
998.61 998.14 997.74 997.54 997.24 997.08 997.11 996.99 997.09 997.54 997.87 998.40 999.08 999.66 1000.49 1001.21 1002.04 1002.57 1003.28 1004.19 1004.51 1004.84
997.85 997.23 996.85 996.49 996.54 996.48 996.40 996.40 996.56 997.04 997.44 998.11 998.47 999.91 1000.58 1001.32 1002.15 1002.78 1003.43 1003.92 1004.29 1004.63
996.80 996.08 995.97 995.44 995.61 995.62 995.77 995.99 996.18 996.73 997.31 998.24 998.97 1000.32 1001.07 1001.91 1002.33 1002.79 1003.29 1003.67 1004.09 1004.40
995.95 995.15 995.19 994.40 994.67 995.01 995.38 995.71 995.90 996.59 997.39 998.72 1000.05 1000.90 1001.67 1002.07 1002.39 1002.83 1003.23 1003.55 1003.99 1004.47
995.07 994.58 994.46 993.83 994.20 994.87 995.37 995.79 996.31 996.96 997.80 998.71 1000.57 1001.52 1001.77 1001.99 1002.44 1002.74 1003.20 1003.62 1004.05 1004.79
993.89 993.95 993.60 993.61 994.50 994.91 995.32 995.67 996.19 997.09 998.14 999.35 1000.66 1001.92 1001.92 1002.09 1001.74 1002.73 1003.17 1004.01 1004.65 1005.24
993.15 993.22 993.15 993.69 994.32 994.74 995.14 995.71 996.56 997.62 998.87 999.84 1000.83 1002.10 1002.40 1002.45 1002.00 1002.65 1003.18 1003.49 1004.27 1005.00
Wind_Speed
12 10 11 13 14 13 12 11 8 11 14 16 15 13 13 11 11 11 11 13 10 8
11 13 12 13 11 13 14 10 11 13 13 15 16 15 14 11 12 11 11 10 10 9
13 12 12 12 13 14 12 13 13 14 14 15 15 15 14 12 13 12 10 8 10 10
15 15 14 14 14 16 15 14 15 15 15 16 16 15 14 13 14 13 11 10 11 13
15 15 15 15 16 15 16 16 16 15 16 16 16 16 16 16 14 13 12 12 11 11
16 15 16 16 16 16 16 16 15 15 16 17 17 16 16 15 13 12 12 13 13 13
17 16 16 17 17 16 17 16 16 16 16 16 16 16 16 14 13 12 12 13 12 12
17 17 17 17 17 16 17 16 16 16 16 16 15 13 15 13 13 12 10 10 9 10
17 17 18 17 16 16 17 16 17 17 17 16 12 15 11 14 12 12 11 10 10 9
17 17 18 17 17 17 17 16 16 17 17 16 12 17 15 12 12 11 10 10 10 9
18 16 19 18 17 16 15 16 15 15 16 13 11 17 16 13 12 11 10 9 8 7
18 15 15 16 15 14 14 13 13 13 14 15 13 12 15 13 11 10 8 7 6 8
15 13 13 12 13 14 13 14 14 14 15 15 16 9 13 9 9 9 7 6 6 8
12 12 13 13 13 13 14 15 14 16 15 15 13 8 7 5 7 8 8 8 8 7
Wind_Direction
262 256 250 242 249 249 240 232 210 211 214 214 215 209 206 204 213 204 205 204 219 211
263 262 266 264 247 240 249 237 212 211 220 213 213 197 199 211 201 193 195 189 204 217
267 257 246 249 253 247 241 232 231 210 214 208 204 194 192 200 194 187 184 195 192 201
273 270 265 257 248 239 230 230 224 209 202 198 195 191 191 198 178 183 181 191 195 199
269 270 266 260 253 247 233 221 221 205 193 191 192 189 193 190 174 184 185 186 197 193
265 264 259 256 252 243 229 217 213 204 197 193 190 187 192 183 178 185 188 190 196 201
269 263 257 254 250 238 228 214 206 202 197 192 186 187 185 177 180 184 192 202 205 202
270 269 260 253 247 236 224 213 202 196 195 187 185 181 178 176 182 186 181 180 188 191
268 264 265 248 243 229 217 208 199 192 188 180 186 133 151 172 168 174 168 175 194 190
271 261 261 243 233 218 208 197 190 183 178 173 158 128 129 147 162 164 180 185 189 201
269 259 258 235 221 208 197 189 177 173 169 170 134 137 146 159 156 177 181 182 190 202
264 258 252 224 205 193 185 171 163 166 159 149 146 146 147 166 165 171 171 179 173 183
263 265 224 180 189 181 172 159 150 146 148 136 139 155 150 186 180 164 156 157 145 53
254 245 185 178 177 166 148 139 130 128 133 123 129 142 154 236 165 160 173 165 168 144